User: anonymous
Location: Sherrills_Ford_Terrell
(35.6000°N, 80.9830°W)
Time: 05:06:18
(UTC-04:00)
Language:

CZ-4B R/B - Orbit

View from above orbital plane
View from above orbital plane
View from above satellite
View from above satellite

Ground track
Ground track

The orbit data is extracted from the following two-line orbital elements,

1 29093U 06015B   14109.50606063  .00017522  00000-0  65166-3 0  2768
2 29093 097.5230 188.7993 0094627 106.6805 357.1738 15.23380031440648
Epoch (UTC): 19 April 2014 12:08:43
Eccentricity: 0.0094627
inclination: 97.5230°
perigee height: 430 km
apogee height: 561 km
right ascension of ascending node: 188.7993°
argument of perigee: 106.6805°
revolutions per day: 15.23380031
mean anomaly at epoch: 357.1738°
orbit number at epoch: 44064

The dashed part of the orbit path shows where the satellite is in the earth's shadow,  

DLR